Погода в Злынке

Украина / Кировоградская область     48°29′27″N   31°32′15″E
темп.,
°C
ветер,
м/с
пор.,
м/с
влажн.,
%
обл.,
%
осадки,
мм/ч
давл.,
гПа
погр.,
м
12 мая, ср
ср1200:00+11всв488695 0.0 1016272
03:00+6всв38900 0.0 1016169
06:00+5св39935 0.0 1017318
09:00+9св5778100 0.0 1016725
12:00+12всв776478 0.2 10151479
15:00+12всв5662100 0.3 10141490
18:00+11вюв336873 0.1 1013698
21:00+7всв2285100 0.1 101322
13 мая, чт
чт1300:00+7вюв2287100 0.0 101329
03:00+6ююв22898 0.0 101218
06:00+5юв229134 0.0 101338
09:00+11юв446974 0.0 1012608
12:00+15ююв555271 0.0 10121246
15:00+17ююв6754100 0.0 10111372
18:00+17ююв4865100 0.1 1010807
21:00+13вюв4108081 0.1 1010225
14 мая, пт
пт1400:00+12юв388696 0.0 1010157
03:00+10юв4892100 0.0 1009142
06:00+10ююв369338 0.0 1009124
09:00+16ю356396 0.0 1008478
12:00+20ю45515 0.0 10091126
15:00+22ю685093 0.0 10081949
18:00+19ююз576552 0.3 10081039
21:00+14юз228510 0.8 100913
15 мая, сб
сб1500:00+13з229197 0.0 101024
03:00+11зсз119282 0.0 101011
06:00+12сз1187100 0.2 101112
09:00+15сз227388 0.2 1012346
12:00+18сз2261100 0.0 10121021
15:00+20зсз235218 0.0 10121652
18:00+19ссз2259100 0.0 1011254
21:00+17св346863 0.1 101281
16 мая, вс
вс1600:00+15всв477840 0.0 1012137
03:00+12в4109298 0.0 1012171
06:00+13в51188100 0.0 1011241
09:00+17в6973100 0.0 1010440
12:00+21в685999 0.0 10101258
15:00+24в784691 0.1 10082455
18:00+22св71161100 0.0 1005551
21:00+18всв71684100 5.6 1003609